Tekamah, NE

7:49 PM CDT on May 23, 2017 (GMT -0500)
Tekamah

Weather History for KTQE - May, 2014

Change the Weather History Date:

Wednesday, May 14, 2014

  Actual Average Record
Temperature  
Mean Temperature 53 °F -  
Max Temperature 70 °F 73 °F 108 °F (2013)
Min Temperature 37 °F 49 °F 34 °F (2004)
Degree Days  
Heating Degree Days 12    
Growing Degree Days 3 (Base 50)    
Moisture  
Dew Point 36 °F    
Average Humidity 56    
Maximum Humidity 89    
Minimum Humidity 22    
Precipitation  
Precipitation 0.00 in - - ()
Sea Level Pressure  
Sea Level Pressure 30.19 in    
Wind  
Wind Speed 6 mph (NW)    
Max Wind Speed 28 mph    
Max Gust Speed 41 mph    
Visibility 10 miles    
Events Rain    
Averages and records for this station are not official NWS values.
T = Trace of Precipitation, MM = Missing Value Source: NWS Daily Summary

Daily Weather History Graph

Daily Weather History Graph

Search for Another Location

Airport or City:

Trip Planner

Search our weather history database for the weather conditions in past years. The results will help you decide how hot, cold, wet, or windy it might be!

Date:

Astronomy

May. 14, 2014 Rise Set
Actual Time 6:05 AM CDT 8:36 PM CDT
Civil Twilight 5:34 AM CDT 9:08 PM CDT
Nautical Twilight 4:54 AM CDT 9:48 PM CDT
Astronomical Twilight 4:10 AM CDT 10:32 PM CDT
Moon 8:43 PM CDT (5/14) 6:06 AM CDT (5/14)
Length of Visible Light 15h 34m
Length of Day
14h 31m
Full, 100% of the Moon is Illuminated
May 14
Full
May 14
Full
May 21
Last Quarter
May 28
New
Jun 5
First Quarter

Hourly Weather History & Observations

Time (CDT) Temp. Windchill Dew Point Humidity Pressure Visibility Wind Dir Wind Speed Gust Speed Precip Events Conditions
12:54 AM 43.0 °F 41.3 °F 37.9 °F 82% 30.28 in 10.0 mi West 3.5 mph - N/A   Clear
1:54 AM 43.0 °F - 35.1 °F 74% 30.28 in 10.0 mi Calm Calm - N/A   Clear
2:54 AM 41.0 °F - 37.0 °F 86% 30.27 in 10.0 mi Calm Calm - N/A   Clear
4:54 AM 39.0 °F - 35.1 °F 86% 30.27 in 10.0 mi Calm Calm - N/A   Clear
5:54 AM 37.0 °F 33.3 °F 34.0 °F 89% 30.27 in 10.0 mi South 4.6 mph - N/A   Clear
6:54 AM 37.9 °F 34.4 °F 35.1 °F 89% 30.27 in 10.0 mi South 4.6 mph - N/A   Clear
7:54 AM 45.0 °F 42.6 °F 39.0 °F 80% 30.27 in 10.0 mi South 4.6 mph - N/A   Clear
8:54 AM 50.0 °F - 39.9 °F 68% 30.26 in 10.0 mi South 4.6 mph - N/A   Clear
10:54 AM 62.1 °F - 36.0 °F 38% 30.22 in 10.0 mi West 12.7 mph - N/A   Clear
11:54 AM 64.0 °F - 28.9 °F 27% 30.21 in 10.0 mi Calm Calm - N/A   Clear
12:54 PM 66.9 °F - 30.9 °F 26% 30.18 in 10.0 mi North 13.8 mph - N/A   Clear
1:54 PM 66.9 °F - 28.9 °F 24% 30.15 in 10.0 mi NW 6.9 mph - N/A   Mostly Cloudy
2:54 PM 69.1 °F - 28.9 °F 22% 30.12 in 10.0 mi North 9.2 mph - N/A   Overcast
3:54 PM 66.0 °F - 30.0 °F 26% 30.10 in 10.0 mi NNE 12.7 mph - N/A   Overcast
4:54 PM 64.0 °F - 33.1 °F 31% 30.11 in 10.0 mi West 16.1 mph - 0.00 in   Mostly Cloudy
5:54 PM 61.0 °F - 37.0 °F 41% 30.12 in 10.0 mi NW 27.6 mph 41.4 mph N/A   Mostly Cloudy
6:54 PM 59.0 °F - 39.9 °F 49% 30.11 in 10.0 mi NW 9.2 mph - 0.00 in   Overcast
7:54 PM 59.0 °F - 41.0 °F 51% 30.11 in 10.0 mi North 8.1 mph - N/A   Partly Cloudy
8:54 PM 55.0 °F - 42.1 °F 62% 30.13 in 10.0 mi NNE 12.7 mph - 0.00 in   Mostly Cloudy
9:54 PM 52.0 °F - 42.1 °F 69% 30.16 in 10.0 mi North 10.4 mph - N/A   Mostly Cloudy
10:54 PM 52.0 °F - 37.0 °F 57% 30.19 in 10.0 mi North 16.1 mph - 0.00 in Rain Light Rain
11:54 PM 48.9 °F - 34.0 °F 56% 30.20 in 10.0 mi North 18.4 mph - 0.00 in   Partly Cloudy